Location: Utrecht
(52.0830°N, 5.1330°E)
Time: 00:36:21
(UTC+01:00)

Daily predictions for brighter satellites

Satellite Brightness Start Highest point End
(mag) Time Altitude Azimuth Time Altitude Azimuth Time Altitude Azimuth
Cosmos 1943 Rocket 4.4 02:48:52 19° NNE 02:48:52 19° NNE 02:50:29 10° NNE
Resurs 1-4 Rocket 4.4 02:50:48 10° NNE 02:52:19 19° NNE 02:52:19 19° NNE
ATLAS 2AS CENTAUR R/B 3.6 03:00:06 53° NNE 03:00:06 53° NNE 03:06:28 10° NE
Cosmos 2369 Rocket 4.3 03:09:32 20° N 03:09:32 20° N 03:11:39 10° NNE
NOSS 3-4 (A) 4.3 03:27:10 47° NE 03:27:10 47° NE 03:31:45 10° NE
NOSS 3-4 (C) 4.3 03:27:16 47° NE 03:27:16 47° NE 03:31:51 10° NE
Cosmos 1697 Rocket 4.1 03:56:03 30° ESE 03:56:38 31° ESE 04:01:29 10° NE
CZ-2D R/B 3.9 04:00:11 10° N 04:02:18 22° N 04:02:18 22° N
SJ 16-02 3.9 04:11:07 14° SE 04:12:51 17° E 04:15:45 10° NE
COSMOS 2455 3.1 04:14:54 47° NNW 04:16:29 65° NE 04:22:29 10° SE
Aureole 1 Rocket 4.0 04:11:56 10° NNW 04:19:50 85° WSW 04:20:56 65° SSE
ADEOS II 2.3 04:22:43 10° NNE 04:27:07 63° N 04:27:07 63° N
Cosmos 1943 Rocket 4.1 04:30:23 18° NNW 04:30:23 18° NNW 04:33:45 10° NNE
CZ-4B R/B 4.3 04:29:43 10° NNE 04:32:11 34° NE 04:32:11 34° NE
RESURS DK-1 4.3 04:36:11 23° N 04:36:11 23° N 04:38:04 10° NNE
Resurs 1-4 Rocket 4.0 04:31:22 10° N 04:33:24 19° NNW 04:33:24 19° NNW
Cosmos 2263 Rocket 3.5 04:31:52 10° NNW 04:37:11 39° NE 04:42:30 10° ESE
BREEZE-M DEB (TANK) 3.9 04:41:07 67° SW 04:41:46 74° S 04:56:22 10° E
Cosmos 2123 Rocket 4.2 04:40:10 10° N 04:46:24 71° ENE 04:52:39 10° SSE
Meteor 2-10 Rocket 3.9 04:45:28 33° SSE 04:47:32 57° E 04:52:28 10° NNE
NOSS 2-2 (E) 4.4 04:49:40 45° NNW 04:49:40 45° NNW 04:54:18 10° NE
Cosmos 1269 Rocket 4.3 04:44:18 10° NNW 04:49:34 66° ENE 04:54:49 10° SE
NOSS 2-2 (D) 4.3 04:51:11 47° N 04:51:11 47° N 04:55:40 10° NE
ATLAS 2AS CENTAUR R/B 4.0 04:47:31 28° NW 04:50:52 38° N 04:58:16 10° ENE
Cosmos 2369 Rocket 4.3 04:51:18 13° NNW 04:52:29 14° NNW 04:55:16 10° NNE
Cosmos 2278 3.6 04:53:45 67° WSW 04:54:30 79° WNW 05:00:15 10° NNE
Cosmos 2298 Rocket 3.9 04:55:43 73° WSW 04:56:07 78° WNW 05:01:29 10° NNE
BREEZE M DEB (TANK) 4.5 05:00:10 12° ESE 05:00:10 12° ESE 05:00:24 10° E
Cosmos 1656 3.4 04:58:07 67° WSW 04:58:40 74° WNW 05:04:12 10° NNE
RUBIN 8/PSLV 4.4 04:57:24 10° NNE 05:01:44 89° ESE 05:01:46 88° SSE
Cosmos 1821 Rocket 3.9 04:59:48 27° S 05:03:27 87° W 05:09:47 10° N
Okean O Rocket 1.9 05:02:07 10° NNE 05:06:34 68° ESE 05:08:36 31° S
Cosmos 2227 4.0 05:01:47 14° NNW 05:06:43 78° WSW 05:12:19 10° SSE
PSLV R/B 4.1 05:04:23 10° N 05:07:37 58° N 05:07:37 58° N
MOS 1-B 4.2 05:04:28 10° NNE 05:10:16 75° WNW 05:12:43 36° SSW
PSLV R/B 3.7 05:06:40 10° N 05:10:33 57° NW 05:10:33 57° NW
Cosmos 1980 Rocket 2.6 05:07:27 23° S 05:11:00 63° ESE 05:16:36 10° NE
Cosmos 2150 Rocket 3.9 05:11:11 58° WSW 05:11:57 66° WNW 05:17:07 10° NNE
USA 229 DEB 4.1 05:06:06 14° NW 05:12:19 66° NE 05:19:36 10° ESE
PAYLOAD B 4.3 05:06:48 10° NNE 05:12:20 75° ESE 05:17:31 12° S
USA 229 4.1 05:06:13 14° NW 05:12:25 66° NE 05:19:42 10° ESE
ARIANE 5 R/B 4.4 05:11:05 10° NNW 05:12:41 15° NNW 05:12:41 15° NNW
NOSS 2-2 (C) 4.4 05:14:21 38° NW 05:14:43 39° NNW 05:19:38 10° NE
Cosmos 1535 Rocket 4.3 05:11:15 16° SSW 05:16:16 83° W 05:22:26 10° N
Genesis I 3.6 05:16:46 52° NNW 05:16:46 52° NNW 05:20:27 10° NE
NOSS 3-4 (A) 4.3 05:14:36 32° WNW 05:16:41 40° NNW 05:23:02 10° NE
NOSS 3-4 (C) 4.3 05:14:41 32° WNW 05:16:47 40° NNW 05:23:08 10° NE
ATLAS 5 CENTAUR R/B 3.8 05:13:56 10° S 05:17:42 25° ESE 05:21:48 10° ENE
SKYMED 2 4.3 05:14:11 10° SE 05:18:24 53° ENE 05:22:39 10° N
Cosmos 405 Rocket 4.5 05:16:28 10° SSE 05:20:00 33° E 05:23:29 10° NNE
Cosmos 2369 4.0 05:21:54 42° W 05:23:16 51° NW 05:28:52 10° NNE
EXPRESS MD2 4.4 05:27:00 32° SSW 05:27:04 32° SSW 05:32:23 10° SE
Cosmos 1048 Rocket 4.0 05:22:16 10° NNW 05:27:19 54° WSW 05:32:17 10° S
IDEFIX/ARIANE 42P 3.7 05:26:49 10° NNE 05:31:51 44° E 05:36:49 10° S
Cosmos 405 2.8 05:29:47 10° NNW 05:33:22 75° W 05:36:56 10° S
Cosmos 2242 Rocket 4.3 05:31:12 10° S 05:35:41 56° E 05:40:12 10° NNE
Cosmos 2251 Rocket 4.3 05:31:33 10° NNW 05:36:45 54° ENE 05:41:57 10° SE
Cosmos 1937 Rocket 4.1 05:35:48 34° W 05:36:51 38° NW 05:41:47 10° NNE
Cosmos 372 Rocket 4.0 05:32:32 13° SSW 05:37:04 79° ESE 05:42:15 10° NNE
Cosmos 1898 Rocket 4.4 05:37:41 29° WNW 05:38:27 30° NW 05:43:08 10° NNE
Cosmos 1697 Rocket 2.8 05:37:48 31° WSW 05:40:19 57° NW 05:45:53 10° NNE
CZ-3 R/B 4.4 05:34:53 18° WSW 05:42:05 22° SW 05:49:15 10° SSE
EO 1 Del DPAF 4.3 05:39:39 10° SE 05:43:19 47° ENE 05:47:03 10° N
Cosmos 1908 Rocket 4.5 05:40:20 10° N 05:44:39 50° ENE 05:48:54 10° SSE
Landsat 4 4.2 05:41:33 10° SSE 05:45:14 61° ENE 05:48:55 10° N
NOSS 3-1 (C) 4.3 05:38:12 10° NW 05:45:19 65° NE 05:53:27 10° ESE
Cosmos 1733 Rocket 2.9 05:43:40 10° NNW 05:48:03 72° W 05:52:26 10° S
SL-16 R/B 3.3 05:42:52 10° S 05:48:15 45° ESE 05:53:38 10° NE
Cosmos 1605 Rocket 3.8 05:43:00 10° SSW 05:49:06 79° W 05:55:14 10° N
Cosmos 1125 Rocket 3.4 05:45:10 11° SSW 05:50:12 85° WNW 05:55:28 10° NNE
SJ 16-02 1.3 05:48:09 22° SW 05:50:57 67° WNW 05:55:22 10° NNE
Cosmos 1862 Rocket 3.7 05:52:31 10° S 05:56:53 75° E 06:01:19 10° NNE
BREEZE-M DEB (TANK) 3.1 05:55:57 28° SW 05:57:03 37° SSW 06:03:33 10° SE
Cosmos 1441 Rocket 3.3 05:55:41 10° S 05:59:40 85° ESE 06:03:41 10° NNE
Aureole 3 2.4 05:57:19 10° NNW 06:00:20 78° W 06:03:22 10° S
CZ-2C R/B 3.3 05:55:53 10° NNE 06:00:54 55° E 06:05:58 10° S
COSMOS 2455 3.5 05:58:07 16° WNW 06:02:06 32° WSW 06:07:21 10° S
Meteor 1-31 Rocket 3.1 05:59:11 10° N 06:02:50 41° WNW 06:05:10 19° SW
Okean-O 3.0 06:01:56 10° NNE 06:06:24 67° ESE 06:10:48 10° S
COSMO-SKYMED 1 2.6 06:02:15 10° S 06:06:31 56° W 06:10:49 10° NNW
ADEOS II 3.5 06:03:32 10° N 06:07:03 18° NW 06:08:04 17° WNW
CZ-4B R/B 3.4 06:02:51 10° N 06:08:06 52° WNW 06:13:27 10° SW
CZ-4B R/B 4.2 06:05:31 10° NNW 06:08:20 20° WNW 06:08:21 20° WNW
Cosmos 1933 3.7 06:05:01 11° SW 06:08:42 43° WNW 06:12:36 10° N
Meteor 1-26 Rocket 4.3 06:02:52 10° S 06:08:45 90° E 06:14:35 10° NNE
Feng Yun 1-1 Rocket 4.4 06:04:11 10° NNE 06:09:45 78° ESE 06:15:26 10° SSW
Meteor 1-4 Rocket 4.1 06:08:05 10° N 06:11:40 40° ENE 06:15:15 10° SE
Radarsat Rocket 4.4 06:05:56 10° NNE 06:11:45 65° ESE 06:17:48 10° S
ERBS 3.0 06:11:20 18° NW 06:13:37 49° NNE 06:16:58 10° E
Cosmos 1943 Rocket 4.5 06:15:05 10° NNW 06:16:19 11° N 06:17:32 10° NNE
Geosat 3.9 06:12:22 10° SSE 06:17:24 73° WSW 06:22:28 10° NW
SS 2 4.5 06:15:56 20° WNW 06:17:43 59° SW 06:20:35 10° SSE
Meteor 1-20 Rocket 4.2 06:12:30 10° NNW 06:18:20 70° W 06:24:04 10° S
CZ-2C R/B 4.3 06:14:21 10° SSW 06:18:35 34° W 06:22:48 10° NNW
Cosmos 1459 Rocket 4.3 06:12:21 10° S 06:18:38 75° E 06:25:00 10° NNE
Cosmos 1782 3.5 06:16:04 10° S 06:20:02 59° E 06:24:01 10° NNE
Cosmos 494 Rocket 4.1 06:15:26 10° NNW 06:20:23 49° WSW 06:25:18 10° S
MTI 4.0 06:18:06 10° S 06:21:10 46° W 06:24:17 10° NNW
Cosmos 2263 Rocket 2.4 06:15:51 10° NW 06:21:17 49° WSW 06:26:43 10° S
Cosmos 2278 Rocket 4.1 06:16:32 10° NNW 06:21:21 27° NE 06:26:08 10° E
IRS-1C Rocket 4.3 06:16:40 10° N 06:21:45 49° WNW 06:26:48 10° SW
Cosmos 2173 Rocket 4.2 06:15:42 10° S 06:21:51 78° E 06:27:59 10° NNE
Cosmos 1802 Rocket 4.3 06:22:47 10° S 06:29:09 76° E 06:35:27 10° NNE
Cosmos 2061 Rocket 4.2 06:23:17 10° S 06:29:27 76° E 06:35:40 10° NNE
Cosmos 1606 2.6 06:31:17 10° SSW 06:35:06 84° W 06:38:56 10° N
Cosmos 1437 Rocket 2.8 06:32:38 10° NNW 06:36:41 60° W 06:40:37 10° S
Cosmos 1633 3.1 06:35:18 10° NNW 06:38:40 36° W 06:42:02 10° SSW
Okean O Rocket 3.0 06:39:20 10° NNW 06:42:30 19° WNW 06:45:40 10° WSW
Cosmos 1782 Rocket 3.5 06:38:29 10° NNW 06:42:51 76° W 06:47:11 10° S
ATLAS 2AS CENTAUR R/B 4.0 06:36:15 10° NW 06:43:52 41° NNE 06:51:12 10° E
Cosmos 1844 Rocket 3.0 06:39:01 10° NNW 06:44:41 72° ENE 06:50:20 10° SE
Cosmos 2322 Rocket 2.2 06:39:27 10° SW 06:45:10 80° WNW 06:50:56 10° NNE
PAYLOAD A 4.0 06:41:07 10° N 06:45:44 50° WNW 06:50:28 10° SW
NOAA 6 4.2 06:42:43 10° N 06:47:43 50° WNW 06:52:39 10° SW
Cosmos 2084 3.3 06:48:38 10° NW 06:52:23 59° SW 06:56:10 10° SSE
Cosmos 2360 Rocket 2.9 06:47:21 10° SSW 06:52:54 59° ESE 06:58:28 10° NE
Cosmos 1818 3.6 06:48:59 10° NW 06:54:29 87° SW 06:59:58 10° SE
Cosmos 1980 Rocket 3.0 06:50:20 10° WSW 06:55:25 33° NW 07:00:30 10° NNE
Cosmos 1484 Rocket 3.1 06:51:28 10° NNE 06:55:29 76° ESE 06:59:29 10° S
Cosmos 405 Rocket 3.7 06:52:45 10° SW 06:56:05 26° WNW 06:59:22 10° N
Sich 1 Rocket 3.9 06:54:43 10° NNW 06:58:53 42° W 07:03:00 10° SSW
ATLAS 5 CENTAUR R/B 1.9 06:57:11 10° SW 07:01:53 69° NW 07:07:12 10° NE
USA 229 DEB 4.3 06:56:28 10° NW 07:03:08 43° WSW 07:09:57 10° S
USA 229 4.3 06:56:35 10° NW 07:03:15 43° WSW 07:10:05 10° S
NOSS 3-1 (A) 4.1 06:57:53 10° NW 07:05:15 80° SW 07:13:34 10° SE
